Regional Weather Roundup
Issued by NWS

Current Version | Previous Version | Text Only | Print | Product List | Glossary On
Versions: 1 2 3 4 5 6 7 8 9 10 11 12 13 14 15 16 17 18 19 20 21 22 23 24 25 26 27 28 29 30 31 32 33 34 35 36 37 38 39 40 41 42 43 44 45 46 47 48 49 50
000
ASUS45 KABQ 202310
RWRNM
WEATHER ROUNDUP FOR NEW MEXICO
NATIONAL WEATHER SERVICE ALBUQUERQUE NM
500 PM MDT SUN APR 20 2014

NOTE: "FAIR" MEANS FEW OR NO CLOUDS BELOW 12,000 FEET AGL WITH NO
       SIGNIFICANT WEATHER OR OBSTRUCTIONS TO VISION.

      THIS PRODUCT IS RELEASED AS TWO VERSIONS.  ONE VERSION NEAR
      THE TOP OF THE HOUR CONTAINING PRELIMINARY DATA FROM ALBUQUERQUE
      AND OTHER STATIONS.  A FINAL VERSION WITH ADDITIONAL DATA IS
      ISSUED ABOUT 10 MINUTES AFTER THE HOUR.

NMZ501-503-504-510>518-210000-
NORTHWEST PLATEAU/NORTHCENTRAL MOUNTAINS

CITY           SKY/WX    TMP DP  RH WIND       PRES   REMARKS
FARMINGTON     SUNNY     74  28  18 W21G30    30.03R
LOS ALAMOS     PTSUNNY   63  33  31 N3        30.13S
SANTA FE       CLOUDY    69  34  27 NE12      30.06R
TAOS           PTSUNNY   57  39  51 SE9       30.14F
ANGEL FIRE     FAIR      55  38  53 W23G30    30.17R

$$
NMZ402-403-502-505>509-210000-
WESTCENTRAL MOUNTAINS/SOUTHWEST MOUNTAINS

CITY           SKY/WX    TMP DP  RH WIND       PRES   REMARKS
GALLUP         MOSUNNY   69  30  23 S8        30.13F
GRANTS         MOSUNNY   67  34  28 SW16      30.15R
SILVER CITY    PTSUNNY   72  32  23 SW6       30.13S

$$
NMZ407-409-411-412-210000-
SOUTHERN DESERTS

CITY           SKY/WX    TMP DP  RH WIND       PRES   REMARKS
LORDSBURG      FAIR      73  36  25 W10       30.08S
DEMING         SUNNY     77  33  20 SW8       30.07F
LAS CRUCES     SUNNY     76  31  19 SW8       30.08F
HOLLOMAN AFB   SUNNY     75  39  26 SE7       30.04F
ALAMOGORDO     SUNNY     73  36  25 CALM      30.07S
T OR C         CLOUDY    72  36  26 SW9       30.06F

$$
NMZ519>523-210000-
CENTRAL VALLEYS/CENTRAL HIGHLANDS

CITY           SKY/WX    TMP DP  RH WIND       PRES   REMARKS
ALBUQUERQUE    PTSUNNY   74  28  18 NW20      30.04F
DOUBLE EAGLE   PTSUNNY   72  28  20 W14       30.08S
MORIARTY ARPT  FAIR      71  30  21 W14G24    30.08S
CLINES CORNERS MOSUNNY   65  29  25 NW16G24   30.10R
BELEN          FAIR      73  37  27 SW12G23   30.04F
SOCORRO        FAIR      74  37  25 S16       30.05F

$$
NMZ524>526-539-540-210000-
SOUTHCENTRAL MOUNTAINS

CITY           SKY/WX    TMP DP  RH WIND       PRES   REMARKS
RUIDOSO        PTSUNNY   63  36  36 W17G24    30.17S

$$
NMZ527>531-210000-
NORTHEAST HIGHLANDS/NORTHEAST PLAINS

CITY           SKY/WX    TMP DP  RH WIND       PRES   REMARKS
LAS VEGAS      CLOUDY    54  44  69 NE5       30.12R
RATON          MOSUNNY   63  41  44 NE13      30.07R
CLAYTON        MOSUNNY   68  37  32 N6        29.99S

$$
NMZ532>537-210000-
EASTCENTRAL PLAINS

CITY           SKY/WX    TMP DP  RH WIND       PRES   REMARKS
TUCUMCARI      PTSUNNY   70  42  36 NW18      29.96S
CANNON AFB     PTSUNNY   61  51  70 NW8       30.00R
CLOVIS AIRPORT   N/A     61  48  63 W25G44    30.03R THUNDER

$$
NMZ028-029-538-210000-
SOUTHEAST PLAINS

CITY           SKY/WX    TMP DP  RH WIND       PRES   REMARKS
ROSWELL        MOSUNNY   79  35  20 W8        29.96F
ARTESIA        MOSUNNY   77  45  31 S13       29.98F
CARLSBAD       MOSUNNY   81  39  22 W18G24    29.97S
HOBBS          MOSUNNY   77  37  24 SW21G26   30.00S


$$



USA.gov is the U.S. government's official web portal to all federal, state and local government web resources and services.